Location: Litvinovka
(48.6667°N, 34.3500°E)
Time: 10:20:21
(UTC+00:00)

Cosmos 1603 - Pass Details

Date: 18 September 2020
Orbit: 832 x 858 km, 71.0° (Epoch: 25 October)

Event Time Altitude Azimuth Distance (km) Brightness Sun altitude
Rises 16:39:32 0° 329° (NNW) 3,422 7.6 -9.2°
Reaches altitude 10° 16:42:01 10° 327° (NNW) 2,478 6.9 -9.6°
Maximum altitude 16:47:37 63° 248° (WSW) 940 4.2 -10.5°
Drops below altitude 10° 16:53:09 10° 168° (SSE) 2,445 5.8 -11.4°
Sets 16:55:35 0° 165° (SSE) 3,372 6.5 -11.8°
